Regional Weather Roundup
Issued by NWS

Home | Current Version | Previous Version | Graphics & Text | Print | Product List | Glossary On
Versions: 1 2 3 4 5 6 7 8 9 10 11 12 13 14 15 16 17 18 19 20 21 22 23 24 25 26 27 28 29 30 31 32 33 34 35 36 37 38 39 40 41 42 43 44 45 46 47 48 49 50
000
ASUS45 KSLC 160410
RWRUT

UTAH REGIONAL WEATHER ROUNDUP
NATIONAL WEATHER SERVICE SALT LAKE CITY UT
1000 PM MDT MON SEP 15 2014

UTZ001>011-023>025-160500-

NORTHERN UTAH

CITY           SKY/WX    TMP DP  RH WIND       PRES   REMARKS
HILL AFB       CLEAR     71  38  29 SE15      30.11S
LOGAN          CLEAR     64  47  53 SW9       30.10R
OGDEN          CLEAR     70  41  34 S9        30.08S
PROVO AIRPORT  CLEAR     64  48  55 SE3       30.12R
SALT LAKE CITY PTCLDY    71  43  36 S7        30.07R
VERNAL         CLEAR     66  43  43 NW7       30.17R
WENDOVER       CLEAR     73  34  23 CALM      30.06R
HEBER CITY     CLEAR     54  41  62 CALM      30.20R
WEST JORDAN    CLEAR     72  39  30 CALM      30.10S

$$

UTZ012>022-026-027-160500-

SOUTHERN UTAH

CITY           SKY/WX    TMP DP  RH WIND       PRES   REMARKS
BRYCE CANYON   CLEAR     51  43  74 W3        30.36R
CEDAR CITY     CLEAR     67  40  37 E6        30.18R
MILFORD        CLEAR     66  40  38 W5        30.12R
MOAB/CYNLANDS  CLEAR     70  40  33 W5        30.09R
PRICE          CLEAR     68  34  28 N6        30.21R
ST GEORGE      CLEAR     84  43  23 SW5       29.97R
KANAB            N/A     72  36  26 N7        30.17R

$$

REGIONAL REPORTS     COLORADO/ARIZONA

CITY           SKY/WX    TMP DP  RH WIND       PRES   REMARKS
CRAIG, CO      CLEAR     52  46  80 CALM      30.26R
GRAND JUNCTION CLEAR     66  42  41 CALM      30.14R
RIFLE          CLEAR     61  42  49 S6        30.23R
MONTROSE       CLEAR     64  40  41 SE9       30.25R
CORTEZ         CLEAR     59  43  55 E7        30.24R
PAGE, AZ       CLEAR     83  38  20 S6        30.08R
GRAND CANYON   CLEAR     56  43  61 CALM      30.30R
KINGMAN        CLEAR     83  52  34 S7        30.01R
FLAGSTAFF      CLEAR     57  47  69 CALM      30.32R

$$

REGIONAL REPORTS    NEVADA/IDAHO/WYOMING

CITY           SKY/WX    TMP DP  RH WIND       PRES   REMARKS
LAS VEGAS, NV  PTCLDY    94  42  16 S12       29.84R HX  90
ELY            CLEAR     62  36  37 S7        30.22R
ELKO           CLEAR     68  31  25 E5        30.08S
POCATELLO, ID  CLEAR     66  34  30 E3        30.09R
BURLEY         CLEAR     63  43  48 S3        30.05R
EVANSTON, WY   CLEAR     61  32  33 E7        30.30R
ROCK SPRINGS   CLEAR     63  35  35 W9        30.27R

$$


USA.gov is the U.S. government's official web portal to all federal, state and local government web resources and services.